Time,TemperatureF,DewpointF,PressureIn,WindDirection,WindDirectionDegrees,WindSpeedMPH,WindSpeedGustMPH,Humidity,HourlyPrecipIn,Conditions,Clouds,dailyrainin,SoftwareType,DateUTC
2013-09-02 00:04:00,60.3,59.7,29.93,West,268,0.0,4.0,98,0.00,,,0.00,meteohub,2013-09-02 07:04:00,
2013-09-02 00:09:00,60.3,59.7,29.94,West,268,0.0,4.0,98,0.00,,,0.00,meteohub,2013-09-02 07:09:00,
2013-09-02 00:14:00,60.3,59.7,29.94,West,268,0.0,1.0,98,0.00,,,0.00,meteohub,2013-09-02 07:14:00,
2013-09-02 00:19:00,60.3,59.7,29.94,West,268,0.0,1.0,98,0.00,,,0.00,meteohub,2013-09-02 07:19:00,
2013-09-02 00:24:00,60.4,59.9,29.94,West,268,0.0,4.0,98,0.00,,,0.00,meteohub,2013-09-02 07:24:00,
2013-09-02 00:29:00,60.4,59.9,29.94,West,268,0.0,4.0,98,0.00,,,0.00,meteohub,2013-09-02 07:29:00,
2013-09-02 00:34:00,60.3,59.7,29.94,West,268,0.0,6.0,98,0.00,,,0.00,meteohub,2013-09-02 07:34:00,
2013-09-02 00:39:00,60.3,59.7,29.94,West,264,6.0,6.0,98,0.00,,,0.00,meteohub,2013-09-02 07:39:00,
2013-09-02 00:45:00,60.3,59.7,29.94,West,264,0.0,6.0,98,0.00,,,0.00,meteohub,2013-09-02 07:45:00,
2013-09-02 00:50:00,60.4,59.9,29.94,West,266,0.0,6.0,98,0.00,,,0.00,meteohub,2013-09-02 07:50:00,
2013-09-02 00:55:00,60.4,59.9,29.94,West,260,0.0,6.0,98,0.00,,,0.00,meteohub,2013-09-02 07:55:00,
2013-09-02 01:00:00,60.4,59.9,29.94,West,261,0.0,7.0,98,0.00,,,0.00,meteohub,2013-09-02 08:00:00,
2013-09-02 01:05:00,60.4,59.9,29.94,West,261,0.0,7.0,98,0.00,,,0.00,meteohub,2013-09-02 08:05:00,
2013-09-02 01:10:00,60.4,59.9,29.94,West,261,0.0,6.0,98,0.00,,,0.00,meteohub,2013-09-02 08:10:00,
2013-09-02 01:15:00,60.4,59.9,29.94,West,264,5.0,6.0,98,0.00,,,0.00,meteohub,2013-09-02 08:15:00,
2013-09-02 01:20:00,60.3,59.7,29.94,West,266,0.0,8.0,98,0.00,,,0.00,meteohub,2013-09-02 08:20:00,
2013-09-02 01:25:00,60.4,59.9,29.94,WSW,258,0.0,9.0,98,0.00,,,0.00,meteohub,2013-09-02 08:25:00,
2013-09-02 01:30:00,60.3,59.7,29.94,West,274,8.0,9.0,98,0.00,,,0.00,meteohub,2013-09-02 08:30:00,
2013-09-02 01:35:00,60.3,59.7,29.94,West,271,0.0,10.0,98,0.00,,,0.00,meteohub,2013-09-02 08:35:00,
2013-09-02 01:40:00,60.1,59.5,29.94,West,271,2.0,10.0,98,0.00,,,0.00,meteohub,2013-09-02 08:40:00,
2013-09-02 01:45:00,60.1,59.5,29.94,WSW,245,0.0,10.0,98,0.00,,,0.00,meteohub,2013-09-02 08:45:00,
2013-09-02 01:50:00,60.1,59.5,29.93,West,268,4.0,11.0,98,0.00,,,0.00,meteohub,2013-09-02 08:50:00,
2013-09-02 01:55:00,59.9,59.4,29.93,West,269,0.0,11.0,98,0.00,,,0.00,meteohub,2013-09-02 08:55:00,
2013-09-02 02:00:00,59.9,59.4,29.93,WSW,254,7.0,11.0,98,0.00,,,0.00,meteohub,2013-09-02 09:00:00,
2013-09-02 02:05:00,59.9,59.4,29.93,WSW,249,0.0,9.0,98,0.00,,,0.00,meteohub,2013-09-02 09:05:00,
2013-09-02 02:10:00,60.1,59.5,29.93,West,271,0.0,9.0,98,0.00,,,0.00,meteohub,2013-09-02 09:10:00,
2013-09-02 02:15:00,60.1,59.5,29.93,West,266,0.0,9.0,98,0.00,,,0.00,meteohub,2013-09-02 09:15:00,
2013-09-02 02:20:00,60.1,59.5,29.93,West,262,0.0,9.0,98,0.00,,,0.00,meteohub,2013-09-02 09:20:00,
2013-09-02 02:26:00,60.1,59.5,29.93,West,271,0.0,9.0,98,0.00,,,0.00,meteohub,2013-09-02 09:26:00,
2013-09-02 02:31:00,60.1,59.5,29.93,West,269,3.0,9.0,98,0.00,,,0.00,meteohub,2013-09-02 09:31:00,
2013-09-02 02:36:00,60.1,59.5,29.93,West,271,4.0,7.0,98,0.00,,,0.00,meteohub,2013-09-02 09:36:00,
2013-09-02 02:41:00,60.1,59.5,29.93,West,271,0.0,8.0,98,0.00,,,0.00,meteohub,2013-09-02 09:41:00,
2013-09-02 02:46:00,60.3,59.7,29.93,West,269,0.0,8.0,98,0.00,,,0.00,meteohub,2013-09-02 09:46:00,
2013-09-02 02:51:00,60.3,59.7,29.93,West,269,4.0,7.0,98,0.00,,,0.00,meteohub,2013-09-02 09:51:00,
2013-09-02 02:56:00,60.3,59.7,29.93,West,269,4.0,6.0,98,0.00,,,0.00,meteohub,2013-09-02 09:56:00,
2013-09-02 03:01:00,60.3,59.7,29.92,West,269,0.0,7.0,98,0.00,,,0.00,meteohub,2013-09-02 10:01:00,
2013-09-02 03:06:00,60.3,59.7,29.92,West,269,0.0,7.0,98,0.00,,,0.00,meteohub,2013-09-02 10:06:00,
2013-09-02 03:11:00,60.3,59.7,29.92,West,269,4.0,7.0,98,0.00,,,0.00,meteohub,2013-09-02 10:11:00,
2013-09-02 03:16:00,60.4,59.9,29.92,West,269,0.0,5.0,98,0.00,,,0.00,meteohub,2013-09-02 10:16:00,
2013-09-02 03:21:00,60.4,59.9,29.92,West,271,0.0,8.0,98,0.00,,,0.00,meteohub,2013-09-02 10:21:00,
2013-09-02 03:26:00,60.4,59.9,29.92,West,271,0.0,8.0,98,0.00,,,0.00,meteohub,2013-09-02 10:26:00,
2013-09-02 03:31:00,60.4,59.9,29.92,West,271,0.0,8.0,98,0.00,,,0.00,meteohub,2013-09-02 10:31:00,
2013-09-02 03:36:00,60.4,59.9,29.92,West,271,0.0,6.0,98,0.00,,,0.00,meteohub,2013-09-02 10:36:00,
2013-09-02 03:41:00,60.4,59.9,29.92,West,264,3.0,8.0,98,0.00,,,0.00,meteohub,2013-09-02 10:41:00,
2013-09-02 03:46:00,60.3,59.7,29.93,West,266,6.0,9.0,98,0.00,,,0.00,meteohub,2013-09-02 10:46:00,
2013-09-02 03:51:00,60.3,59.7,29.93,West,265,0.0,9.0,98,0.00,,,0.00,meteohub,2013-09-02 10:51:00,
2013-09-02 03:56:00,60.3,59.7,29.93,West,266,2.0,9.0,98,0.00,,,0.00,meteohub,2013-09-02 10:56:00,
2013-09-02 04:01:00,60.3,59.7,29.92,West,266,0.0,9.0,98,0.00,,,0.00,meteohub,2013-09-02 11:01:00,
2013-09-02 04:06:00,60.3,59.7,29.92,West,266,0.0,8.0,98,0.00,,,0.00,meteohub,2013-09-02 11:06:00,
2013-09-02 04:11:00,60.4,59.9,29.92,West,266,0.0,6.0,98,0.00,,,0.00,meteohub,2013-09-02 11:11:00,
2013-09-02 04:16:00,60.4,59.9,29.92,West,266,5.0,6.0,98,0.00,,,0.00,meteohub,2013-09-02 11:16:00,
2013-09-02 04:21:00,60.4,59.9,29.92,West,266,0.0,6.0,98,0.00,,,0.00,meteohub,2013-09-02 11:21:00,
2013-09-02 04:26:00,60.4,59.9,29.92,West,268,0.0,7.0,98,0.00,,,0.00,meteohub,2013-09-02 11:26:00,
2013-09-02 04:31:00,60.6,60.1,29.92,West,268,3.0,7.0,98,0.00,,,0.00,meteohub,2013-09-02 11:31:00,
2013-09-02 04:36:00,60.8,60.3,29.92,West,269,5.0,7.0,98,0.00,,,0.00,meteohub,2013-09-02 11:36:00,
2013-09-02 04:42:00,60.6,60.1,29.92,West,269,0.0,7.0,98,0.00,,,0.00,meteohub,2013-09-02 11:42:00,
2013-09-02 04:47:00,60.6,60.1,29.92,West,269,0.0,7.0,98,0.00,,,0.00,meteohub,2013-09-02 11:47:00,
2013-09-02 04:52:00,60.4,59.9,29.92,West,269,0.0,7.0,98,0.00,,,0.00,meteohub,2013-09-02 11:52:00,
2013-09-02 04:57:00,60.4,59.9,29.92,West,269,0.0,1.0,98,0.00,,,0.00,meteohub,2013-09-02 11:57:00,
2013-09-02 05:02:00,60.4,59.9,29.92,West,269,0.0,1.0,98,0.00,,,0.00,meteohub,2013-09-02 12:02:00,
2013-09-02 05:07:00,60.3,59.7,29.92,West,269,0.0,3.0,98,0.00,,,0.00,meteohub,2013-09-02 12:07:00,
2013-09-02 05:12:00,60.3,59.7,29.92,West,269,0.0,3.0,98,0.00,,,0.00,meteohub,2013-09-02 12:12:00,
2013-09-02 05:17:00,60.4,59.9,29.92,West,269,0.0,1.0,98,0.00,,,0.00,meteohub,2013-09-02 12:17:00,
2013-09-02 05:22:00,60.4,59.9,29.92,West,269,0.0,1.0,98,0.00,,,0.00,meteohub,2013-09-02 12:22:00,
2013-09-02 05:27:00,60.4,59.9,29.92,West,269,0.0,1.0,98,0.00,,,0.00,meteohub,2013-09-02 12:27:00,
2013-09-02 05:32:00,60.4,59.9,29.93,West,269,0.0,2.0,98,0.00,,,0.00,meteohub,2013-09-02 12:32:00,
2013-09-02 05:37:00,60.4,59.9,29.93,West,269,0.0,2.0,98,0.00,,,0.00,meteohub,2013-09-02 12:37:00,
2013-09-02 05:42:00,60.6,60.1,29.93,West,269,0.0,2.0,98,0.00,,,0.00,meteohub,2013-09-02 12:42:00,
2013-09-02 05:47:00,60.6,60.1,29.92,West,269,0.0,0.0,98,0.00,,,0.00,meteohub,2013-09-02 12:47:00,
2013-09-02 05:52:00,60.6,60.1,29.93,West,269,0.0,0.0,98,0.00,,,0.00,meteohub,2013-09-02 12:52:00,
2013-09-02 05:57:00,60.6,60.1,29.93,West,269,0.0,4.0,98,0.00,,,0.00,meteohub,2013-09-02 12:57:00,
2013-09-02 06:02:00,60.6,60.1,29.93,West,269,0.0,4.0,98,0.00,,,0.00,meteohub,2013-09-02 13:02:00,
2013-09-02 06:07:00,60.6,60.1,29.93,West,269,0.0,5.0,98,0.00,,,0.00,meteohub,2013-09-02 13:07:00,
2013-09-02 06:12:00,60.6,60.1,29.93,West,269,0.0,5.0,98,0.00,,,0.00,meteohub,2013-09-02 13:12:00,
2013-09-02 06:17:00,60.6,60.1,29.93,West,269,0.0,5.0,98,0.00,,,0.00,meteohub,2013-09-02 13:17:00,
2013-09-02 06:22:00,60.8,60.3,29.94,West,269,0.0,4.0,98,0.00,,,0.00,meteohub,2013-09-02 13:22:00,
2013-09-02 06:27:00,60.6,60.1,29.94,West,269,0.0,4.0,98,0.00,,,0.00,meteohub,2013-09-02 13:27:00,
2013-09-02 06:32:00,60.6,60.1,29.93,West,269,0.0,5.0,98,0.00,,,0.00,meteohub,2013-09-02 13:32:00,
2013-09-02 06:37:00,60.6,60.1,29.94,West,269,0.0,5.0,98,0.00,,,0.00,meteohub,2013-09-02 13:37:00,
2013-09-02 06:42:00,60.6,60.1,29.94,West,269,0.0,5.0,98,0.00,,,0.00,meteohub,2013-09-02 13:42:00,
2013-09-02 06:47:00,60.4,59.9,29.94,West,269,3.0,5.0,98,0.00,,,0.00,meteohub,2013-09-02 13:47:00,
2013-09-02 06:52:00,60.6,60.1,29.94,West,269,0.0,5.0,98,0.00,,,0.00,meteohub,2013-09-02 13:52:00,
2013-09-02 06:57:00,60.6,60.1,29.94,West,269,0.0,4.0,98,0.00,,,0.00,meteohub,2013-09-02 13:57:00,
2013-09-02 07:02:00,60.6,60.1,29.94,West,269,0.0,3.0,98,0.00,,,0.00,meteohub,2013-09-02 14:02:00,
2013-09-02 07:07:00,60.6,60.1,29.94,West,269,0.0,3.0,98,0.00,,,0.00,meteohub,2013-09-02 14:07:00,
2013-09-02 07:12:00,60.6,60.1,29.95,West,269,2.0,2.0,98,0.00,,,0.00,meteohub,2013-09-02 14:12:00,
2013-09-02 07:17:00,60.6,60.1,29.95,West,269,0.0,4.0,98,0.00,,,0.00,meteohub,2013-09-02 14:17:00,
2013-09-02 07:23:00,60.6,60.1,29.95,West,269,0.0,4.0,98,0.00,,,0.00,meteohub,2013-09-02 14:23:00,
2013-09-02 07:28:00,60.6,60.1,29.95,West,269,0.0,4.0,98,0.00,,,0.00,meteohub,2013-09-02 14:28:00,
2013-09-02 07:33:00,60.6,60.1,29.95,West,269,2.0,4.0,98,0.00,,,0.00,meteohub,2013-09-02 14:33:00,
2013-09-02 07:38:00,60.8,60.3,29.95,West,269,0.0,4.0,98,0.00,,,0.00,meteohub,2013-09-02 14:38:00,
2013-09-02 07:43:00,60.8,60.3,29.95,West,269,0.0,4.0,98,0.00,,,0.00,meteohub,2013-09-02 14:43:00,
2013-09-02 07:48:00,61.0,60.4,29.96,West,269,0.0,4.0,98,0.00,,,0.00,meteohub,2013-09-02 14:48:00,
2013-09-02 07:53:00,61.0,60.4,29.96,West,269,3.0,4.0,98,0.00,,,0.00,meteohub,2013-09-02 14:53:00,
2013-09-02 07:58:00,61.0,60.4,29.96,WSW,240,0.0,8.0,98,0.00,,,0.00,meteohub,2013-09-02 14:58:00,
2013-09-02 08:03:00,61.0,60.4,29.96,WSW,240,0.0,8.0,98,0.00,,,0.00,meteohub,2013-09-02 15:03:00,
2013-09-02 08:08:00,61.0,60.4,29.95,WSW,244,0.0,8.0,98,0.00,,,0.00,meteohub,2013-09-02 15:08:00,
2013-09-02 08:13:00,61.0,60.4,29.95,WSW,244,0.0,5.0,98,0.00,,,0.00,meteohub,2013-09-02 15:13:00,
2013-09-02 08:18:00,61.0,60.4,29.96,WSW,244,0.0,5.0,98,0.00,,,0.00,meteohub,2013-09-02 15:18:00,
2013-09-02 08:23:00,61.0,60.4,29.96,WSW,244,0.0,5.0,98,0.00,,,0.00,meteohub,2013-09-02 15:23:00,
2013-09-02 08:28:00,61.0,60.4,29.96,WSW,244,0.0,5.0,98,0.00,,,0.00,meteohub,2013-09-02 15:28:00,
2013-09-02 08:33:00,61.2,60.6,29.96,WSW,244,0.0,5.0,98,0.00,,,0.00,meteohub,2013-09-02 15:33:00,
2013-09-02 08:38:00,61.2,60.6,29.96,WSW,244,0.0,3.0,98,0.00,,,0.00,meteohub,2013-09-02 15:38:00,
2013-09-02 08:43:00,61.3,60.8,29.96,WSW,244,0.0,5.0,98,0.00,,,0.00,meteohub,2013-09-02 15:43:00,
2013-09-02 08:48:00,61.3,60.8,29.96,WSW,244,0.0,5.0,98,0.00,,,0.00,meteohub,2013-09-02 15:48:00,
2013-09-02 08:53:00,61.3,60.8,29.96,WSW,244,0.0,5.0,98,0.00,,,0.00,meteohub,2013-09-02 15:53:00,
2013-09-02 08:58:00,61.3,60.8,29.96,WSW,244,0.0,5.0,98,0.00,,,0.00,meteohub,2013-09-02 15:58:00,
2013-09-02 09:03:00,61.3,60.8,29.97,WSW,244,0.0,6.0,98,0.00,,,0.00,meteohub,2013-09-02 16:03:00,
2013-09-02 09:08:00,61.3,60.8,29.97,WSW,244,0.0,6.0,98,0.00,,,0.00,meteohub,2013-09-02 16:08:00,
2013-09-02 09:13:00,61.3,60.8,29.97,WSW,244,0.0,6.0,98,0.00,,,0.00,meteohub,2013-09-02 16:13:00,
2013-09-02 09:18:00,61.3,60.8,29.97,WSW,244,0.0,5.0,98,0.00,,,0.00,meteohub,2013-09-02 16:18:00,
2013-09-02 09:23:00,61.3,60.8,29.97,WSW,244,0.0,5.0,98,0.00,,,0.00,meteohub,2013-09-02 16:23:00,
2013-09-02 09:28:00,61.5,61.0,29.97,WSW,244,0.0,3.0,98,0.00,,,0.00,meteohub,2013-09-02 16:28:00,
2013-09-02 09:33:00,61.5,61.0,29.97,West,269,11.0,11.0,98,0.00,,,0.00,meteohub,2013-09-02 16:33:00,
2013-09-02 09:38:00,61.3,60.8,29.97,West,270,0.0,11.0,98,0.00,,,0.00,meteohub,2013-09-02 16:38:00,
2013-09-02 09:43:00,61.3,60.8,29.97,West,273,5.0,11.0,98,0.00,,,0.00,meteohub,2013-09-02 16:43:00,
2013-09-02 09:49:00,61.5,61.0,29.97,West,259,0.0,11.0,98,0.00,,,0.00,meteohub,2013-09-02 16:49:00,
2013-09-02 09:54:00,61.5,61.2,29.97,West,274,1.0,8.0,99,0.00,,,0.00,meteohub,2013-09-02 16:54:00,
2013-09-02 09:59:00,61.3,60.8,29.97,WSW,248,0.0,7.0,98,0.00,,,0.00,meteohub,2013-09-02 16:59:00,
2013-09-02 10:04:00,61.5,61.0,29.97,WSW,243,0.0,7.0,98,0.00,,,0.00,meteohub,2013-09-02 17:04:00,
2013-09-02 10:09:00,61.5,61.0,29.98,WSW,248,0.0,7.0,98,0.00,,,0.00,meteohub,2013-09-02 17:09:00,
2013-09-02 10:14:00,61.5,61.0,29.98,WSW,246,0.0,7.0,98,0.00,,,0.00,meteohub,2013-09-02 17:14:00,
2013-09-02 10:19:00,61.5,61.0,29.98,WSW,253,5.0,7.0,98,0.00,,,0.00,meteohub,2013-09-02 17:19:00,
2013-09-02 10:24:00,61.7,61.3,29.98,WSW,253,0.0,6.0,99,0.00,,,0.00,meteohub,2013-09-02 17:24:00,
2013-09-02 10:29:00,61.7,61.3,29.97,WSW,255,0.0,6.0,99,0.00,,,0.00,meteohub,2013-09-02 17:29:00,
2013-09-02 10:34:00,61.9,61.5,29.97,WSW,255,0.0,6.0,99,0.00,,,0.00,meteohub,2013-09-02 17:34:00,
2013-09-02 10:39:00,61.9,61.3,29.97,WSW,257,0.0,6.0,98,0.00,,,0.00,meteohub,2013-09-02 17:39:00,
2013-09-02 10:44:00,62.1,61.5,29.97,West,264,6.0,6.0,98,0.00,,,0.00,meteohub,2013-09-02 17:44:00,
2013-09-02 10:49:00,62.1,61.5,29.97,WSW,245,0.0,6.0,98,0.00,,,0.00,meteohub,2013-09-02 17:49:00,
2013-09-02 10:54:00,62.1,61.5,29.97,West,268,2.0,7.0,98,0.00,,,0.00,meteohub,2013-09-02 17:54:00,
2013-09-02 10:59:00,62.2,61.9,29.98,WSW,251,6.0,8.0,99,0.00,,,0.00,meteohub,2013-09-02 17:59:00,
2013-09-02 11:04:00,62.4,62.1,29.98,WSW,255,7.0,10.0,99,0.00,,,0.00,meteohub,2013-09-02 18:04:00,
2013-09-02 11:09:00,62.8,62.2,29.98,West,275,1.0,10.0,98,0.00,,,0.00,meteohub,2013-09-02 18:09:00,
2013-09-02 11:15:00,63.3,62.8,29.98,West,268,8.0,11.0,98,0.00,,,0.00,meteohub,2013-09-02 18:15:00,
2013-09-02 11:20:00,63.3,62.8,29.98,West,262,1.0,11.0,98,0.00,,,0.00,meteohub,2013-09-02 18:20:00,
2013-09-02 11:25:00,63.9,63.3,29.98,West,262,2.0,11.0,98,0.00,,,0.00,meteohub,2013-09-02 18:25:00,
2013-09-02 11:30:00,63.9,63.3,29.98,WSW,245,3.0,11.0,98,0.00,,,0.00,meteohub,2013-09-02 18:30:00,
2013-09-02 11:35:00,64.0,63.5,29.98,WSW,250,4.0,9.0,98,0.00,,,0.00,meteohub,2013-09-02 18:35:00,
2013-09-02 11:40:00,64.4,63.9,29.98,WSW,253,1.0,9.0,98,0.00,,,0.00,meteohub,2013-09-02 18:40:00,
2013-09-02 11:45:00,64.8,64.2,29.97,West,276,0.0,9.0,98,0.00,,,0.00,meteohub,2013-09-02 18:45:00,
2013-09-02 11:50:00,65.3,64.4,29.97,WSW,252,5.0,9.0,97,0.00,,,0.00,meteohub,2013-09-02 18:50:00,
2013-09-02 11:55:00,65.7,64.8,29.97,WSW,249,4.0,11.0,97,0.00,,,0.00,meteohub,2013-09-02 18:55:00,
2013-09-02 12:00:00,66.4,65.5,29.97,West,266,2.0,11.0,97,0.00,,,0.00,meteohub,2013-09-02 19:00:00,
2013-09-02 12:05:00,66.9,65.7,29.97,West,276,0.0,11.0,96,0.00,,,0.00,meteohub,2013-09-02 19:05:00,
2013-09-02 12:10:00,67.3,65.5,29.97,WSW,252,9.0,11.0,94,0.00,,,0.00,meteohub,2013-09-02 19:10:00,
2013-09-02 12:15:00,67.3,65.1,29.97,WNW,286,6.0,12.0,93,0.00,,,0.00,meteohub,2013-09-02 19:15:00,
2013-09-02 12:20:00,67.3,64.9,29.97,West,273,8.0,12.0,92,0.00,,,0.00,meteohub,2013-09-02 19:20:00,
2013-09-02 12:25:00,67.5,64.8,29.97,WNW,294,2.0,12.0,91,0.00,,,0.00,meteohub,2013-09-02 19:25:00,
2013-09-02 12:30:00,67.1,64.0,29.97,WNW,301,2.0,13.0,90,0.00,,,0.00,meteohub,2013-09-02 19:30:00,
2013-09-02 12:35:00,67.6,64.6,29.97,WNW,282,0.0,13.0,90,0.00,,,0.00,meteohub,2013-09-02 19:35:00,
2013-09-02 12:40:00,67.6,64.2,29.97,WSW,250,2.0,13.0,89,0.00,,,0.00,meteohub,2013-09-02 19:40:00,
2013-09-02 12:45:00,67.5,63.9,29.97,West,274,6.0,12.0,88,0.00,,,0.00,meteohub,2013-09-02 19:45:00,
2013-09-02 12:50:00,67.5,63.9,29.97,West,270,1.0,13.0,88,0.00,,,0.00,meteohub,2013-09-02 19:50:00,
2013-09-02 12:55:00,67.5,63.5,29.97,West,277,0.0,13.0,87,0.00,,,0.00,meteohub,2013-09-02 19:55:00,
2013-09-02 13:01:00,67.3,63.3,29.96,West,266,7.0,13.0,87,0.00,,,0.00,meteohub,2013-09-02 20:01:00,
2013-09-02 13:06:00,66.9,63.3,29.96,West,271,8.0,13.0,88,0.00,,,0.00,meteohub,2013-09-02 20:06:00,
2013-09-02 13:11:00,67.3,63.3,29.96,WNW,282,11.0,13.0,87,0.00,,,0.00,meteohub,2013-09-02 20:11:00,
2013-09-02 13:16:00,67.3,63.3,29.96,West,270,2.0,17.0,87,0.00,,,0.00,meteohub,2013-09-02 20:16:00,
2013-09-02 13:21:00,67.3,63.3,29.96,SW,219,3.0,17.0,87,0.00,,,0.00,meteohub,2013-09-02 20:21:00,
2013-09-02 13:26:00,67.1,62.8,29.96,West,273,3.0,17.0,86,0.00,,,0.00,meteohub,2013-09-02 20:26:00,
2013-09-02 13:31:00,66.7,62.8,29.96,West,280,0.0,15.0,87,0.00,,,0.00,meteohub,2013-09-02 20:31:00,
2013-09-02 13:36:00,66.9,63.3,29.96,West,262,0.0,15.0,88,0.00,,,0.00,meteohub,2013-09-02 20:36:00,
2013-09-02 13:41:00,66.7,62.8,29.96,WSW,245,8.0,13.0,87,0.00,,,0.00,meteohub,2013-09-02 20:41:00,
2013-09-02 13:46:00,66.4,62.8,29.96,WNW,285,2.0,13.0,88,0.00,,,0.00,meteohub,2013-09-02 20:46:00,
2013-09-02 13:51:00,66.6,63.0,29.96,West,270,0.0,15.0,88,0.00,,,0.00,meteohub,2013-09-02 20:51:00,
2013-09-02 13:56:00,66.7,62.8,29.96,WSW,243,8.0,15.0,87,0.00,,,0.00,meteohub,2013-09-02 20:56:00,
2013-09-02 14:01:00,66.6,63.0,29.96,WNW,286,5.0,13.0,88,0.00,,,0.00,meteohub,2013-09-02 21:01:00,
2013-09-02 14:06:00,66.6,63.0,29.96,SW,228,7.0,14.0,88,0.00,,,0.00,meteohub,2013-09-02 21:06:00,
2013-09-02 14:11:00,66.7,63.1,29.96,WSW,243,1.0,14.0,88,0.00,,,0.00,meteohub,2013-09-02 21:11:00,
2013-09-02 14:16:00,66.9,63.0,29.96,West,271,1.0,14.0,87,0.00,,,0.00,meteohub,2013-09-02 21:16:00,
2013-09-02 14:21:00,66.9,63.0,29.95,WSW,257,6.0,14.0,87,0.00,,,0.00,meteohub,2013-09-02 21:21:00,
2013-09-02 14:26:00,67.3,63.0,29.95,WNW,293,0.0,14.0,86,0.00,,,0.00,meteohub,2013-09-02 21:26:00,
2013-09-02 14:31:00,67.5,63.1,29.95,SW,236,8.0,14.0,86,0.00,,,0.00,meteohub,2013-09-02 21:31:00,
2013-09-02 14:37:00,67.5,63.5,29.95,WNW,285,3.0,14.0,87,0.00,,,0.00,meteohub,2013-09-02 21:37:00,
2013-09-02 14:42:00,67.8,63.5,29.95,West,275,1.0,14.0,86,0.00,,,0.00,meteohub,2013-09-02 21:42:00,
2013-09-02 14:47:00,68.2,63.5,29.95,WNW,293,0.0,14.0,85,0.00,,,0.00,meteohub,2013-09-02 21:47:00,
2013-09-02 14:52:00,68.5,63.5,29.95,WSW,243,10.0,12.0,84,0.00,,,0.00,meteohub,2013-09-02 21:52:00,
2013-09-02 14:57:00,68.2,63.5,29.94,WSW,247,10.0,17.0,85,0.00,,,0.00,meteohub,2013-09-02 21:57:00,
2013-09-02 15:02:00,67.8,62.8,29.94,WSW,253,5.0,17.0,84,0.00,,,0.00,meteohub,2013-09-02 22:02:00,
2013-09-02 15:07:00,67.6,63.3,29.94,West,275,6.0,17.0,86,0.00,,,0.00,meteohub,2013-09-02 22:07:00,
2013-09-02 15:12:00,68.2,63.5,29.94,West,259,6.0,14.0,85,0.00,,,0.00,meteohub,2013-09-02 22:12:00,
2013-09-02 15:17:00,68.0,63.3,29.94,WSW,240,8.0,14.0,85,0.00,,,0.00,meteohub,2013-09-02 22:17:00,
2013-09-02 15:22:00,68.0,63.3,29.94,WSW,256,3.0,13.0,85,0.00,,,0.00,meteohub,2013-09-02 22:22:00,
2013-09-02 15:27:00,68.0,63.3,29.94,SW,224,11.0,13.0,85,0.00,,,0.00,meteohub,2013-09-02 22:27:00,
2013-09-02 15:32:00,68.5,63.9,29.94,WSW,258,0.0,13.0,85,0.00,,,0.00,meteohub,2013-09-02 22:32:00,
2013-09-02 15:37:00,68.2,63.1,29.94,NW,305,0.0,14.0,84,0.00,,,0.00,meteohub,2013-09-02 22:37:00,
2013-09-02 15:42:00,67.8,63.1,29.93,WNW,303,6.0,14.0,85,0.00,,,0.00,meteohub,2013-09-02 22:42:00,
2013-09-02 15:47:00,67.8,63.1,29.94,WSW,257,11.0,15.0,85,0.00,,,0.00,meteohub,2013-09-02 22:47:00,
2013-09-02 15:52:00,67.8,62.8,29.94,West,274,14.0,15.0,84,0.00,,,0.00,meteohub,2013-09-02 22:52:00,
2013-09-02 15:57:00,68.4,63.3,29.93,NW,321,6.0,15.0,84,0.00,,,0.00,meteohub,2013-09-02 22:57:00,
2013-09-02 16:02:00,68.4,63.3,29.93,West,271,7.0,14.0,84,0.00,,,0.00,meteohub,2013-09-02 23:02:00,
2013-09-02 16:07:00,68.4,63.3,29.93,West,274,11.0,14.0,84,0.00,,,0.00,meteohub,2013-09-02 23:07:00,
2013-09-02 16:12:00,67.8,62.8,29.93,NW,316,0.0,15.0,84,0.00,,,0.00,meteohub,2013-09-02 23:12:00,
2013-09-02 16:17:00,67.3,62.2,29.93,West,275,12.0,15.0,84,0.00,,,0.00,meteohub,2013-09-02 23:17:00,
2013-09-02 16:22:00,66.9,62.6,29.93,West,277,9.0,15.0,86,0.00,,,0.00,meteohub,2013-09-02 23:22:00,
2013-09-02 16:27:00,66.9,62.6,29.92,WSW,255,0.0,15.0,86,0.00,,,0.00,meteohub,2013-09-02 23:27:00,
2013-09-02 16:32:00,66.9,62.6,29.92,West,264,11.0,17.0,86,0.00,,,0.00,meteohub,2013-09-02 23:32:00,
2013-09-02 16:37:00,66.9,62.6,29.92,WSW,257,0.0,17.0,86,0.00,,,0.00,meteohub,2013-09-02 23:37:00,
2013-09-02 16:42:00,66.9,62.6,29.92,West,264,0.0,15.0,86,0.00,,,0.00,meteohub,2013-09-02 23:42:00,
2013-09-02 16:47:00,67.1,62.8,29.92,West,275,10.0,15.0,86,0.00,,,0.00,meteohub,2013-09-02 23:47:00,
2013-09-02 16:52:00,67.5,63.1,29.92,WSW,248,1.0,14.0,86,0.00,,,0.00,meteohub,2013-09-02 23:52:00,
2013-09-02 16:57:00,67.5,63.1,29.92,West,260,9.0,14.0,86,0.00,,,0.00,meteohub,2013-09-02 23:57:00,
2013-09-02 17:02:00,67.5,63.1,29.92,WNW,301,0.0,14.0,86,0.00,,,0.00,meteohub,2013-09-03 00:02:00,
2013-09-02 17:07:00,67.3,63.0,29.92,NW,317,1.0,14.0,86,0.00,,,0.00,meteohub,2013-09-03 00:07:00,
2013-09-02 17:12:00,66.9,63.0,29.92,WNW,293,5.0,14.0,87,0.00,,,0.00,meteohub,2013-09-03 00:12:00,
2013-09-02 17:17:00,66.7,63.1,29.92,West,274,1.0,14.0,88,0.00,,,0.00,meteohub,2013-09-03 00:17:00,
2013-09-02 17:22:00,66.9,63.3,29.92,West,265,6.0,18.0,88,0.00,,,0.00,meteohub,2013-09-03 00:22:00,
2013-09-02 17:27:00,66.7,63.1,29.92,West,274,0.0,18.0,88,0.00,,,0.00,meteohub,2013-09-03 00:27:00,
2013-09-02 17:32:00,66.9,63.3,29.91,West,280,10.0,15.0,88,0.00,,,0.00,meteohub,2013-09-03 00:32:00,
2013-09-02 17:37:00,67.1,63.1,29.91,West,265,9.0,15.0,87,0.00,,,0.00,meteohub,2013-09-03 00:37:00,
2013-09-02 17:42:00,66.9,63.0,29.91,WNW,287,13.0,14.0,87,0.00,,,0.00,meteohub,2013-09-03 00:42:00,
2013-09-02 17:47:00,66.7,63.1,29.91,West,270,6.0,15.0,88,0.00,,,0.00,meteohub,2013-09-03 00:47:00,
2013-09-02 17:52:00,66.4,62.8,29.91,West,279,7.0,16.0,88,0.00,,,0.00,meteohub,2013-09-03 00:52:00,
2013-09-02 17:57:00,66.6,63.0,29.91,WNW,303,2.0,16.0,88,0.00,,,0.00,meteohub,2013-09-03 00:57:00,
2013-09-02 18:02:00,66.6,63.0,29.91,West,265,8.0,16.0,88,0.00,,,0.00,meteohub,2013-09-03 01:02:00,
2013-09-02 18:07:00,66.6,63.1,29.91,NW,304,6.0,16.0,89,0.00,,,0.00,meteohub,2013-09-03 01:07:00,
2013-09-02 18:12:00,66.6,63.0,29.91,West,272,0.0,15.0,88,0.00,,,0.00,meteohub,2013-09-03 01:12:00,
2013-09-02 18:17:00,66.4,63.0,29.91,West,263,0.0,11.0,89,0.00,,,0.00,meteohub,2013-09-03 01:17:00,
2013-09-02 18:22:00,66.0,62.6,29.91,West,278,4.0,13.0,89,0.00,,,0.00,meteohub,2013-09-03 01:22:00,
2013-09-02 18:27:00,66.0,62.6,29.91,NW,316,5.0,13.0,89,0.00,,,0.00,meteohub,2013-09-03 01:27:00,
2013-09-02 18:32:00,65.8,62.4,29.91,WNW,292,7.0,13.0,89,0.00,,,0.00,meteohub,2013-09-03 01:32:00,
2013-09-02 18:37:00,65.7,62.6,29.91,NW,310,0.0,13.0,90,0.00,,,0.00,meteohub,2013-09-03 01:37:00,
2013-09-02 18:42:00,65.5,62.4,29.91,West,270,9.0,13.0,90,0.00,,,0.00,meteohub,2013-09-03 01:42:00,
2013-09-02 18:47:00,65.1,62.4,29.91,West,267,9.0,15.0,91,0.00,,,0.00,meteohub,2013-09-03 01:47:00,
2013-09-02 18:52:00,64.9,62.6,29.91,West,259,3.0,17.0,92,0.00,,,0.00,meteohub,2013-09-03 01:52:00,
2013-09-02 18:57:00,64.8,62.4,29.91,WNW,288,4.0,19.0,92,0.00,,,0.00,meteohub,2013-09-03 01:57:00,
2013-09-02 19:03:00,64.6,62.2,29.91,West,280,4.0,19.0,92,0.00,,,0.00,meteohub,2013-09-03 02:03:00,
2013-09-02 19:08:00,64.4,62.4,29.91,West,266,12.0,12.0,93,0.00,,,0.00,meteohub,2013-09-03 02:08:00,
2013-09-02 19:13:00,64.0,62.1,29.91,WNW,282,3.0,12.0,93,0.00,,,0.00,meteohub,2013-09-03 02:13:00,
2013-09-02 19:18:00,63.9,61.9,29.91,West,276,7.0,12.0,93,0.00,,,0.00,meteohub,2013-09-03 02:18:00,
2013-09-02 19:23:00,63.3,61.3,29.91,NW,308,4.0,12.0,93,0.00,,,0.00,meteohub,2013-09-03 02:23:00,
2013-09-02 19:28:00,63.0,61.2,29.91,West,268,6.0,13.0,94,0.00,,,0.00,meteohub,2013-09-03 02:28:00,
2013-09-02 19:33:00,62.8,61.0,29.91,WNW,285,4.0,13.0,94,0.00,,,0.00,meteohub,2013-09-03 02:33:00,
2013-09-02 19:38:00,62.6,61.2,29.91,West,274,0.0,13.0,95,0.00,,,0.00,meteohub,2013-09-03 02:38:00,
2013-09-02 19:43:00,62.6,61.5,29.91,West,281,6.0,13.0,96,0.00,,,0.00,meteohub,2013-09-03 02:43:00,
2013-09-02 19:48:00,62.4,61.3,29.91,WNW,290,10.0,18.0,96,0.00,,,0.00,meteohub,2013-09-03 02:48:00,
2013-09-02 19:53:00,62.2,61.2,29.91,NW,313,7.0,18.0,96,0.00,,,0.00,meteohub,2013-09-03 02:53:00,
2013-09-02 19:58:00,62.1,61.0,29.91,West,281,7.0,13.0,96,0.00,,,0.00,meteohub,2013-09-03 02:58:00,
2013-09-02 20:03:00,62.1,61.0,29.91,NW,326,3.0,15.0,96,0.00,,,0.00,meteohub,2013-09-03 03:03:00,
2013-09-02 20:08:00,61.9,60.8,29.92,West,276,9.0,15.0,96,0.00,,,0.00,meteohub,2013-09-03 03:08:00,
2013-09-02 20:13:00,61.9,60.8,29.91,WNW,283,6.0,15.0,96,0.00,,,0.00,meteohub,2013-09-03 03:13:00,
2013-09-02 20:18:00,61.9,61.0,29.92,WNW,293,4.0,13.0,97,0.00,,,0.00,meteohub,2013-09-03 03:18:00,
2013-09-02 20:23:00,61.5,60.6,29.92,WNW,295,0.0,15.0,97,0.00,,,0.00,meteohub,2013-09-03 03:23:00,
2013-09-02 20:28:00,61.5,60.6,29.92,West,278,4.0,15.0,97,0.00,,,0.00,meteohub,2013-09-03 03:28:00,
2013-09-02 20:33:00,61.3,60.4,29.92,WNW,295,0.0,13.0,97,0.00,,,0.00,meteohub,2013-09-03 03:33:00,
2013-09-02 20:39:00,61.2,60.3,29.92,WNW,292,0.0,13.0,97,0.00,,,0.00,meteohub,2013-09-03 03:39:00,
2013-09-02 20:44:00,61.0,60.1,29.93,WNW,285,2.0,11.0,97,0.00,,,0.00,meteohub,2013-09-03 03:44:00,
2013-09-02 20:49:00,60.8,59.9,29.93,WNW,284,4.0,12.0,97,0.00,,,0.00,meteohub,2013-09-03 03:49:00,
2013-09-02 20:54:00,60.6,59.7,29.93,West,261,10.0,12.0,97,0.00,,,0.00,meteohub,2013-09-03 03:54:00,
2013-09-02 20:59:00,60.6,59.7,29.93,West,279,0.0,12.0,97,0.00,,,0.00,meteohub,2013-09-03 03:59:00,
2013-09-02 21:01:00,60.6,59.7,29.93,West,273,7.0,12.0,97,0.00,,,0.00,meteohub,2013-09-03 04:01:00,
2013-09-02 21:02:00,60.6,59.7,29.93,WSW,255,7.0,12.0,97,0.00,,,0.00,meteohub,2013-09-03 04:02:00,
2013-09-02 21:03:00,60.6,59.7,29.93,West,266,1.0,12.0,97,0.00,,,0.00,meteohub,2013-09-03 04:03:00,
2013-09-02 21:09:00,60.4,59.5,29.93,West,274,4.0,12.0,97,0.00,,,0.00,meteohub,2013-09-03 04:09:00,
2013-09-02 21:14:00,60.4,59.5,29.93,WNW,293,4.0,12.0,97,0.00,,,0.00,meteohub,2013-09-03 04:14:00,
2013-09-02 21:19:00,60.4,59.5,29.93,West,278,8.0,12.0,97,0.00,,,0.00,meteohub,2013-09-03 04:19:00,
2013-09-02 21:24:00,60.4,59.5,29.94,West,273,5.0,12.0,97,0.00,,,0.00,meteohub,2013-09-03 04:24:00,
2013-09-02 21:29:00,60.4,59.5,29.94,West,276,0.0,12.0,97,0.00,,,0.00,meteohub,2013-09-03 04:29:00,
2013-09-02 21:34:00,60.4,59.5,29.94,WNW,283,7.0,11.0,97,0.00,,,0.00,meteohub,2013-09-03 04:34:00,
2013-09-02 21:39:00,60.3,59.4,29.94,WNW,283,0.0,11.0,97,0.00,,,0.00,meteohub,2013-09-03 04:39:00,
2013-09-02 21:44:00,60.3,59.4,29.94,West,277,7.0,11.0,97,0.00,,,0.00,meteohub,2013-09-03 04:44:00,
2013-09-02 21:49:00,60.3,59.4,29.94,NW,306,2.0,10.0,97,0.00,,,0.00,meteohub,2013-09-03 04:49:00,
2013-09-02 21:54:00,60.1,59.2,29.94,WNW,285,0.0,10.0,97,0.00,,,0.00,meteohub,2013-09-03 04:54:00,
2013-09-02 21:59:00,60.1,59.2,29.94,West,264,5.0,10.0,97,0.00,,,0.00,meteohub,2013-09-03 04:59:00,
2013-09-02 22:04:00,60.1,59.2,29.94,NW,316,0.0,10.0,97,0.00,,,0.00,meteohub,2013-09-03 05:04:00,
2013-09-02 22:09:00,60.1,59.2,29.94,WNW,291,0.0,9.0,97,0.00,,,0.00,meteohub,2013-09-03 05:09:00,
2013-09-02 22:14:00,60.3,59.7,29.94,WNW,282,0.0,11.0,98,0.00,,,0.00,meteohub,2013-09-03 05:14:00,
2013-09-02 22:19:00,60.4,59.9,29.94,WNW,290,9.0,11.0,98,0.00,,,0.00,meteohub,2013-09-03 05:19:00,
2013-09-02 22:24:00,60.6,60.1,29.94,WNW,291,4.0,9.0,98,0.00,,,0.00,meteohub,2013-09-03 05:24:00,
2013-09-02 22:30:00,60.6,60.1,29.94,WNW,282,7.0,9.0,98,0.00,,,0.00,meteohub,2013-09-03 05:30:00,
2013-09-02 22:35:00,60.8,60.3,29.94,WNW,303,4.0,14.0,98,0.00,,,0.00,meteohub,2013-09-03 05:35:00,
2013-09-02 22:40:00,61.0,60.4,29.94,West,278,4.0,14.0,98,0.00,,,0.00,meteohub,2013-09-03 05:40:00,
2013-09-02 22:45:00,61.0,60.4,29.94,West,266,6.0,11.0,98,0.00,,,0.00,meteohub,2013-09-03 05:45:00,
2013-09-02 22:50:00,61.0,60.4,29.94,West,281,6.0,10.0,98,0.00,,,0.00,meteohub,2013-09-03 05:50:00,
2013-09-02 22:55:00,60.8,60.3,29.94,WNW,285,0.0,9.0,98,0.00,,,0.00,meteohub,2013-09-03 05:55:00,
2013-09-02 23:00:00,60.8,60.3,29.94,West,271,0.0,8.0,98,0.00,,,0.00,meteohub,2013-09-03 06:00:00,
2013-09-02 23:05:00,60.6,60.1,29.94,WNW,300,0.0,8.0,98,0.00,,,0.00,meteohub,2013-09-03 06:05:00,
2013-09-02 23:10:00,60.6,60.1,29.94,WNW,295,0.0,7.0,98,0.00,,,0.00,meteohub,2013-09-03 06:10:00,
2013-09-02 23:15:00,60.4,59.9,29.94,West,276,3.0,7.0,98,0.00,,,0.00,meteohub,2013-09-03 06:15:00,
2013-09-02 23:20:00,60.4,59.9,29.94,West,274,5.0,7.0,98,0.00,,,0.00,meteohub,2013-09-03 06:20:00,
2013-09-02 23:25:00,60.3,59.7,29.94,West,272,4.0,8.0,98,0.00,,,0.00,meteohub,2013-09-03 06:25:00,
2013-09-02 23:30:00,60.1,59.5,29.94,WSW,252,8.0,8.0,98,0.00,,,0.00,meteohub,2013-09-03 06:30:00,
2013-09-02 23:35:00,60.1,59.5,29.94,WNW,290,3.0,10.0,98,0.00,,,0.00,meteohub,2013-09-03 06:35:00,
2013-09-02 23:40:00,60.1,59.5,29.94,West,275,0.0,10.0,98,0.00,,,0.00,meteohub,2013-09-03 06:40:00,
2013-09-02 23:45:00,59.9,59.4,29.94,West,271,6.0,10.0,98,0.00,,,0.00,meteohub,2013-09-03 06:45:00,
2013-09-02 23:51:00,59.5,59.0,29.94,West,281,0.0,10.0,98,0.00,,,0.00,meteohub,2013-09-03 06:51:00,
2013-09-02 23:56:00,59.4,58.8,29.94,WNW,283,8.0,10.0,98,0.00,,,0.00,meteohub,2013-09-03 06:56:00,